Location: St. Louis
(38.6270°N, 90.1994°W)
Time: 12:22:21
(UTC-06:00)

S-56A Canister/Altair - Pass Details

Date: 04 December 2021
Orbit: 634 x 2499 km, 38.9° (Epoch: 26 January)

Event Time Altitude Azimuth Distance (km) Brightness Sun altitude
Rises 20:17:56 0° 192° (SSW) 6,003 12.2 -42.0°
Reaches altitude 10° 20:23:56 10° 176° (S) 4,760 11.4 -43.1°
Enters shadow 20:25:04 12° 172° (S) 4,551 11.3 -43.4°
Maximum altitude 20:31:25 18° 141° (SE) 3,732 - -44.6°
Drops below altitude 10° 20:37:40 10° 104° (ESE) 3,882 - -45.8°
Sets 20:41:44 0° 86° (E) 4,529 - -46.6°
